This is the latest recevied weather packets stored in our database for station/object KD1KE. If no packets are shown the sender has not sent any weather packets the latest 1 day(s).
| Time | Temp. | Humidity | Pressure | Rain* | Wind** | Luminosity | Snow |
|---|---|---|---|---|---|---|---|
| 1777997560 | 21.67° C | 56% | 1005.9 hPa | 0 mm | 1.34 m/s, 230° | - | - |
| 1777997529 | 21.67° C | 56% | 1005.9 hPa | 0 mm | 1.34 m/s, 230° | - | - |
| 1777997019 | 22.22° C | 54% | 1006.3 hPa | 0 mm | 1.34 m/s, 226° | - | - |
| 1777996870 | 22.22° C | 54% | 1006.3 hPa | 0 mm | 1.34 m/s, 225° | - | - |
| 1777996478 | 22.22° C | 54% | 1006.4 hPa | 0 mm | 0.89 m/s, 234° | - | - |
| 1777996209 | 22.22° C | 55% | 1006.4 hPa | 0 mm | 0.45 m/s, 242° | - | - |
| 1777995938 | 21.67° C | 56% | 1006.4 hPa | 0 mm | 0.45 m/s, 221° | - | - |
| 1777995550 | 21.67° C | 56% | 1006.4 hPa | 0 mm | 0.89 m/s, 212° | - | - |
| 1777995398 | 21.11° C | 57% | 1006.3 hPa | 0 mm | 0.89 m/s, 213° | - | - |
| 1777994889 | 20.56° C | 58% | 1006.4 hPa | 0 mm | 1.34 m/s, 209° | - | - |
| 1777994863 | 20.56° C | 56% | 1006.4 hPa | 0 mm | 1.34 m/s, 209° | - | - |
| 1777994319 | 21.11° C | 56% | 1006.4 hPa | 0 mm | 1.34 m/s, 240° | - | - |
| 1777994230 | 21.11° C | 56% | 1006.4 hPa | 0 mm | 1.34 m/s, 240° | - | - |
| 1777993778 | 20.56° C | 56% | 1006.4 hPa | 0 mm | 0.89 m/s, 225° | - | - |
| 1777993568 | 20.56° C | 56% | 1006.4 hPa | 0 mm | 0.89 m/s, 222° | - | - |
| 1777993237 | 20° C | 56% | 1006.4 hPa | 0 mm | 0.45 m/s, 223° | - | - |
| 1777992910 | 20° C | 56% | 1006.4 hPa | 0 mm | 0.45 m/s, 229° | - | - |
| 1777992698 | 20° C | 57% | 1006.4 hPa | 0 mm | 0.89 m/s, 246° | - | - |
| 1777992249 | 20° C | 56% | 1006.5 hPa | 0 mm | 1.34 m/s, 238° | - | - |
| 1777992159 | 20° C | 55% | 1006.3 hPa | 0 mm | 1.34 m/s, 241° | - | - |
| 1777991622 | 20° C | 55% | 1006.4 hPa | 0 mm | 0.89 m/s, 232° | - | - |
| 1777991590 | 20° C | 55% | 1006.4 hPa | 0 mm | 0.89 m/s, 232° | - | - |
| 1777990928 | 19.44° C | 58% | 1006.6 hPa | 0 mm | 0.89 m/s, 229° | - | - |
| 1777990537 | 19.44° C | 57% | 1006.6 hPa | 0 mm | 0.89 m/s, 219° | - | - |
| 1777990269 | 19.44° C | 57% | 1006.5 hPa | 0 mm | 0.45 m/s, 220° | - | - |
* Rain latest hour (hover to see other rain measurements)
** Current wind speed in m/s (hover to see current wind gust speed)